"Pseudo-MPEC" for P11Crrx

Created 2022 Dec 22 22:22:17 UT using Find_Orb

Click here for an explanation of pseudo-MPECs

 
 Astrometry: 
     P11Crrx* C2022 12 029b!+pt7!'Q2eG8frfNc8qCFgAstrometry=xmvFD5bEA2@9#AtU-F51
     P11Crrx  C2022 12 02`yNeredacted;UkW5XmRV:NV^d^_+$x.yM=`gt_mHJ:\(O:O[pD0F51
     P11Crrx  C2022 12 02L\clickND@g)x?8Ql/7Y)vMR!here)F]2uw;VG9@MvforHKp5UoUF51
     P11Crrx  C2022 12 02GFGV^[`4.l578L#g#sCJfQfW3f\13(2C@explanationm)/UuDG3F51

Station data:
(F51) Pan-STARRS 1, Haleakala  (N20.707234 W156.255910)  US/Hawaii.
   Observers J. Bulger, T. Lowe, A. Schultz, M. Willman. Measurers K.
   Chambers, S. Chastel, T. de Boer, L. Denneau, J. Fairlamb, H. Flewelling,
   M. Huber, C.-C. Lin, E. Magnier, Y. Ramanjooloo, R. Wainscoat, R. Weryk.
   1.8-m Ritchey-Chrétien + CCD.

Orbital elements:  P11Crrx
   Perihelion 2022 Oct 1.89081 +/- 69.9 TT = 21:22:45 (JD 2459854.39081)
Epoch 2022 Dec  3.0 TT = JDT 2459916.5   Earth MOID: 0.4812   Ma: 0.0267
M  19.81827291 +/- 70               (J2000 ecliptic)             AutoNEOCP
n   0.31908760 +/- 0.448            Peri.   90.34242 +/- 110
a   2.12094509 +/- 1.98             Node   310.72261 +/- 27
e   0.4253455 +/- 0.238             Incl.   24.90904 +/- 26
P   3.09                   H 20.77  G  0.15   U 12.2  SR
q 1.21881052 +/- 0.494    Q 3.02307965 +/- 34.5
From 4 observations 2022 Dec. 2 (58.8 min); mean residual 0".08
Residuals in arcseconds: 
221202 F51  .07+  .01-    221202 F51  .12+  .05-    
221202 F51  .17-  .03+    221202 F51  .02-  .02+    

Ephemerides (geocentric):
Date (UTC) HH   RA             Dec           delta  r     elong  mag " sig PA
---- --------  ------------   ------------  ------ ------ -----  --- --------
2022 12 22 22  09 50 45.797   +41 04 18.06  .61764 1.4579 129.7 21.9  66d 143
2022 12 22 23  09 50 40.557   +41 03 35.95  .61755 1.4582 129.8 21.9  66d 143
2022 12 23 00  09 50 35.309   +41 02 53.81  .61746 1.4584 129.8 21.9  66d 143
2022 12 23 01  09 50 30.053   +41 02 11.64  .61736 1.4586 129.9 21.9  66d 143
2022 12 23 02  09 50 24.788   +41 01 29.43  .61727 1.4588 129.9 21.9  66d 143
2022 12 23 03  09 50 19.516   +41 00 47.20  .61718 1.4590 130.0 21.9  66d 143
2022 12 23 04  09 50 14.235   +41 00 04.93  .61709 1.4592 130.0 21.9  66d 143
2022 12 23 05  09 50 08.946   +40 59 22.63  .61699 1.4594 130.1 21.9  66d 143
2022 12 23 06  09 50 03.650   +40 58 40.30  .61690 1.4596 130.1 21.9  66d 143
2022 12 23 07  09 49 58.345   +40 57 57.94  .61681 1.4598 130.2 21.9  66d 143
2022 12 23 08  09 49 53.032   +40 57 15.54  .61672 1.4600 130.2 21.9  66d 143
2022 12 23 09  09 49 47.711   +40 56 33.12  .61663 1.4602 130.3 21.9  66d 143
2022 12 23 10  09 49 42.382   +40 55 50.66  .61654 1.4604 130.3 21.9  66d 144
2022 12 23 11  09 49 37.045   +40 55 08.17  .61645 1.4606 130.4 21.9  66d 144
2022 12 23 12  09 49 31.700   +40 54 25.65  .61636 1.4608 130.4 21.9  66d 144
2022 12 23 13  09 49 26.347   +40 53 43.09  .61626 1.4611 130.5 21.9  66d 144
2022 12 23 14  09 49 20.986   +40 53 00.51  .61617 1.4613 130.5 21.9  66d 144
2022 12 23 15  09 49 15.617   +40 52 17.89  .61609 1.4615 130.6 21.9  66d 144
2022 12 23 16  09 49 10.240   +40 51 35.23  .61600 1.4617 130.6 21.9  66d 144
2022 12 23 17  09 49 04.855   +40 50 52.55  .61591 1.4619 130.7 21.9  66d 144
2022 12 23 18  09 48 59.462   +40 50 09.83  .61582 1.4621 130.7 21.9  66d 144
2022 12 23 19  09 48 54.062   +40 49 27.08  .61573 1.4623 130.8 21.9  66d 144
2022 12 23 20  09 48 48.653   +40 48 44.30  .61564 1.4625 130.9 21.9  66d 144
2022 12 23 21  09 48 43.236   +40 48 01.48  .61555 1.4627 130.9 21.9  66d 144
2022 12 23 22  09 48 37.812   +40 47 18.63  .61546 1.4629 131.0 21.9  66d 144
2022 12 23 23  09 48 32.379   +40 46 35.75  .61537 1.4631 131.0 21.9  66d 144
2022 12 24 00  09 48 26.939   +40 45 52.83  .61529 1.4633 131.1 21.9  66d 144
2022 12 24 01  09 48 21.491   +40 45 09.88  .61520 1.4635 131.1 21.9  66d 144
2022 12 24 02  09 48 16.035   +40 44 26.90  .61511 1.4637 131.2 21.9  66d 144
2022 12 24 03  09 48 10.571   +40 43 43.88  .61502 1.4640 131.2 21.9  66d 144
2022 12 24 04  09 48 05.099   +40 43 00.83  .61494 1.4642 131.3 21.9  66d 144
2022 12 24 05  09 47 59.619   +40 42 17.74  .61485 1.4644 131.3 21.9  66d 144
2022 12 24 06  09 47 54.132   +40 41 34.63  .61476 1.4646 131.4 21.9  66d 144
2022 12 24 07  09 47 48.637   +40 40 51.47  .61468 1.4648 131.4 21.9  66d 144
2022 12 24 08  09 47 43.134   +40 40 08.29  .61459 1.4650 131.5 21.9  66d 144
2022 12 24 09  09 47 37.623   +40 39 25.07  .61451 1.4652 131.5 21.9  67d 144
2022 12 24 10  09 47 32.104   +40 38 41.81  .61442 1.4654 131.6 21.9  67d 144
2022 12 24 11  09 47 26.578   +40 37 58.52  .61434 1.4656 131.6 21.9  67d 144
2022 12 24 12  09 47 21.044   +40 37 15.20  .61425 1.4658 131.7 21.9  67d 144
2022 12 24 13  09 47 15.502   +40 36 31.84  .61417 1.4660 131.7 21.9  67d 144
2022 12 24 14  09 47 09.953   +40 35 48.45  .61408 1.4662 131.8 21.9  67d 144
2022 12 24 15  09 47 04.395   +40 35 05.02  .61400 1.4665 131.9 21.9  67d 144
2022 12 24 16  09 46 58.831   +40 34 21.56  .61391 1.4667 131.9 21.9  67d 144
2022 12 24 17  09 46 53.258   +40 33 38.06  .61383 1.4669 132.0 21.9  67d 144
2022 12 24 18  09 46 47.678   +40 32 54.53  .61375 1.4671 132.0 21.9  67d 144
2022 12 24 19  09 46 42.090   +40 32 10.96  .61366 1.4673 132.1 21.9  67d 144
2022 12 24 20  09 46 36.494   +40 31 27.36  .61358 1.4675 132.1 21.9  67d 144
2022 12 24 21  09 46 30.891   +40 30 43.73  .61350 1.4677 132.2 21.9  67d 144